Weather History for Gulkana, AK

Change the Weather History Date:

Sunday, August 18, 2013

  Actual Average Record
Temperature  
Mean Temperature 54 °F -  
Max Temperature 59 °F 63 °F 81 °F (2004)
Min Temperature 50 °F 42 °F 30 °F (2012)
Degree Days  
Heating Degree Days 10    
Growing Degree Days 4 (Base 50)    
Moisture  
Dew Point 50 °F    
Average Humidity 92    
Maximum Humidity 100    
Minimum Humidity 67    
Precipitation  
Precipitation 0.24 in - - ()
Sea Level Pressure  
Sea Level Pressure 29.52 in    
Wind  
Wind Speed 4 mph (South)    
Max Wind Speed 15 mph    
Max Gust Speed 21 mph    
Visibility 7 miles    
Events Rain    
Averages and records for this station are not official NWS values.
T = Trace of Precipitation, MM = Missing Value Source: NWS Daily Summary

Daily Weather History Graph

Daily Weather History Graph

Search for Another Location

Airport:

Trip Planner

Search our weather history database for the weather conditions in past years. The results will help you decide how hot, cold, wet, or windy it might be!

Date:

Astronomy

Aug. 18, 2013 Rise Set
Actual Time 5:54 AM AKDT 9:34 PM AKDT
Civil Twilight 4:59 AM AKDT 10:29 PM AKDT
Nautical Twilight 3:32 AM AKDT 11:53 PM AKDT
Astronomical Twilight Sun does not rise Sun does not rise
Moon 8:02 PM AKDT (8/18) 2:47 AM AKDT (8/18)
Length of Visible Light 17h 30m
Length of Day
15h 40m
Waxing Gibbous, 93% of the Moon is Illuminated
Aug 18
Waxing Gibbous
Aug 20
Full
Aug 28
Last Quarter
Sep 5
New
Sep 12
First Quarter

Hourly Weather History & Observations

Time (AKDT) Temp. Dew Point Humidity Pressure Visibility Wind Dir Wind Speed Gust Speed Precip Events Conditions
12:26 AM 51.1 °F 51.1 °F 100% 29.51 in 10.0 mi Calm Calm - 0.00 in Rain Light Rain
12:41 AM 51.1 °F 51.1 °F 100% 29.50 in 9.0 mi Calm Calm - 0.00 in Rain Light Rain
12:53 AM 51.1 °F 51.1 °F 100% 29.51 in 2.0 mi Calm Calm - 0.00 in   Mostly Cloudy
12:55 AM 51.1 °F 51.1 °F 100% 29.50 in 1.5 mi Calm Calm - N/A   Mostly Cloudy
1:08 AM 51.1 °F 51.1 °F 100% 29.50 in 0.8 mi Calm Calm - 0.00 in Rain Light Rain
1:46 AM 51.1 °F 50.0 °F 96% 29.49 in 1.0 mi Calm Calm - 0.01 in   Overcast
1:53 AM 51.1 °F 50.0 °F 96% 29.50 in 1.0 mi Calm Calm - 0.01 in   Overcast
1:58 AM 51.1 °F 50.0 °F 96% 29.49 in 1.0 mi Calm Calm - N/A   Mist
2:07 AM 51.1 °F 50.0 °F 96% 29.49 in 0.8 mi Calm Calm - N/A   Mist
2:20 AM 51.1 °F 50.0 °F 96% 29.49 in 0.8 mi SSE 4.6 mph - 0.00 in Rain Light Rain
2:27 AM 51.1 °F 50.0 °F 96% 29.49 in 1.0 mi SSE 3.5 mph - 0.00 in Rain Light Rain
2:34 AM 50.0 °F 50.0 °F 100% 29.49 in 2.0 mi South 4.6 mph - 0.01 in Rain Light Rain
2:42 AM 50.0 °F 50.0 °F 100% 29.49 in 5.0 mi Calm Calm - 0.02 in Rain Light Rain
2:53 AM 50.0 °F 50.0 °F 100% 29.50 in 6.0 mi Calm Calm - 0.03 in Rain Light Rain
3:00 AM 50.0 °F 50.0 °F 100% 29.49 in 6.0 mi Calm Calm - 0.01 in Rain Light Rain
3:39 AM 50.0 °F 48.9 °F 96% 29.48 in 7.0 mi South 3.5 mph - 0.04 in Rain Light Rain
3:53 AM 50.0 °F 50.0 °F 100% 29.49 in 7.0 mi South 3.5 mph - 0.05 in Rain Light Rain
4:03 AM 50.0 °F 50.0 °F 100% 29.48 in 6.0 mi South 3.5 mph - 0.01 in Rain Light Rain
4:17 AM 50.0 °F 50.0 °F 100% 29.48 in 7.0 mi South 3.5 mph - 0.02 in Rain Light Rain
4:27 AM 50.0 °F 50.0 °F 100% 29.48 in 7.0 mi South 3.5 mph - 0.03 in Rain Light Rain
4:50 AM 51.8 °F 50.0 °F 94% 29.48 in 2.0 mi SSE 4.6 mph - 0.07 in Rain Light Rain
4:53 AM 51.1 °F 50.0 °F 96% 29.49 in 2.0 mi SSE 4.6 mph - 0.07 in Rain Light Rain
5:18 AM 50.0 °F 50.0 °F 100% 29.47 in 2.5 mi South 5.8 mph - 0.03 in Rain Light Rain
5:26 AM 50.0 °F 50.0 °F 100% 29.47 in 3.0 mi SSE 4.6 mph - 0.04 in Rain Light Rain
5:53 AM 50.0 °F 50.0 °F 100% 29.49 in 8.0 mi South 5.8 mph - 0.07 in Rain Light Rain
6:53 AM 50.0 °F 50.0 °F 100% 29.49 in 6.0 mi SSE 6.9 mph - 0.05 in Rain Light Rain
7:29 AM 51.1 °F 50.0 °F 96% 29.47 in 8.0 mi South 8.1 mph - 0.04 in Rain Light Rain
7:53 AM 51.1 °F 50.0 °F 96% 29.49 in 10.0 mi South 8.1 mph - 0.05 in Rain Light Rain
8:10 AM 51.1 °F 50.0 °F 96% 29.48 in 10.0 mi SSE 9.2 mph - 0.00 in Rain Light Rain
8:53 AM 51.1 °F 50.0 °F 96% 29.50 in 10.0 mi South 5.8 mph - 0.00 in   Overcast
9:53 AM 53.1 °F 50.0 °F 89% 29.51 in 10.0 mi South 10.4 mph - N/A   Overcast
10:03 AM 53.1 °F 50.0 °F 89% 29.50 in 10.0 mi South 10.4 mph - N/A   Overcast
10:28 AM 53.1 °F 50.0 °F 89% 29.51 in 10.0 mi South 11.5 mph - N/A   Overcast
10:40 AM 53.1 °F 50.0 °F 89% 29.52 in 10.0 mi South 10.4 mph - N/A   Overcast
10:53 AM 53.1 °F 51.1 °F 93% 29.53 in 10.0 mi South 9.2 mph - 0.00 in Rain Light Rain
11:06 AM 53.1 °F 50.0 °F 89% 29.52 in 10.0 mi SSE 11.5 mph - 0.00 in   Overcast
11:20 AM 53.1 °F 51.1 °F 93% 29.53 in 10.0 mi SSE 8.1 mph - 0.00 in   Mostly Cloudy
11:53 AM 54.0 °F 51.1 °F 90% 29.55 in 10.0 mi South 9.2 mph - 0.00 in Rain Light Rain
12:53 PM 55.0 °F 52.0 °F 89% 29.56 in 10.0 mi SSE 10.4 mph - 0.01 in   Mostly Cloudy
1:53 PM 55.0 °F 51.1 °F 86% 29.57 in 10.0 mi SSE 13.8 mph 20.7 mph N/A   Mostly Cloudy
2:53 PM 57.0 °F 50.0 °F 77% 29.58 in 10.0 mi South 11.5 mph - N/A   Overcast
3:53 PM 57.0 °F 48.9 °F 74% 29.58 in 10.0 mi SSE 15.0 mph - N/A   Overcast
4:53 PM 57.0 °F 48.0 °F 72% 29.58 in 10.0 mi South 10.4 mph - N/A   Overcast
5:53 PM 59.0 °F 48.9 °F 69% 29.58 in 10.0 mi SSE 12.7 mph - N/A   Overcast
6:53 PM 57.9 °F 50.0 °F 75% 29.59 in 10.0 mi South 10.4 mph - N/A   Mostly Cloudy
7:53 PM 57.0 °F 48.9 °F 74% 29.60 in 10.0 mi SSE 10.4 mph - N/A   Overcast
8:53 PM 55.0 °F 48.9 °F 80% 29.61 in 10.0 mi South 10.4 mph - N/A   Overcast
9:53 PM 53.1 °F 48.9 °F 86% 29.63 in 10.0 mi South 8.1 mph - 0.00 in Rain Light Rain
10:53 PM 51.1 °F 46.9 °F 86% 29.65 in 10.0 mi SSW 6.9 mph - 0.00 in   Overcast
11:53 PM 50.0 °F 46.0 °F 86% 29.65 in 10.0 mi SSW 5.8 mph - N/A   Mostly Cloudy